Location: Wells
(51.2093°N, 2.6446°W)
Time: 11:12:54
(UTC+00:00)

FO-29 - Visible Passes

Search period start: 15 March 2026 00:00
Search period end: 25 March 2026 00:00
Orbit: 800 x 1320 km, 98.5° (Epoch: 14 March)

Date Brightness Start Highest point End Pass type
(mag) Time Alt. Az. Time Alt. Az. Time Alt. Az.
15 Mar 12.6 04:54:01 10° NE 04:54:58 10° NE 04:55:55 10° NNE visible
15 Mar 10.9 19:19:48 10° NNE 19:25:54 26° E 19:32:13 10° SE visible
15 Mar 10.0 21:04:10 10° NNE 21:11:36 84° WNW 21:19:29 10° SSW visible
15 Mar 11.8 22:50:05 10° N 22:55:48 26° NW 23:01:48 10° WSW visible
16 Mar 12.2 05:39:34 10° E 05:43:41 19° NE 05:48:07 10° N visible
16 Mar 10.2 20:09:02 10° NNE 20:16:18 51° E 20:23:55 10° S visible
16 Mar 10.9 21:54:16 10° N 22:01:15 47° WNW 22:08:39 10° SW visible
16 Mar 12.4 23:40:59 10° NNW 23:44:42 15° NW 23:48:33 10° WNW visible
17 Mar 12.7 04:49:01 10° NE 04:49:42 10° NE 04:50:24 10° NNE visible
17 Mar 10.9 19:14:31 10° NE 19:20:33 25° E 19:26:44 10° SE visible
17 Mar 10.0 20:58:48 10° NNE 21:06:20 88° WNW 21:14:15 10° SSW visible
17 Mar 11.8 22:44:38 10° N 22:50:34 27° NW 22:56:46 10° WSW visible
18 Mar 12.2 05:34:17 10° E 05:38:23 19° NE 05:42:48 10° N visible
18 Mar 10.3 20:03:43 10° NNE 20:11:00 48° E 20:18:33 10° S visible
18 Mar 10.8 21:48:53 10° N 21:56:01 50° WNW 22:03:30 10° SW visible
18 Mar 12.4 23:35:27 10° N 23:39:30 16° NW 23:43:41 10° WNW visible
19 Mar 12.8 04:44:16 10° NE 04:44:27 10° NE 04:44:39 10° NNE visible
19 Mar 11.0 19:09:16 10° NE 19:15:12 24° E 19:21:14 10° SE visible
19 Mar 10.0 20:53:27 10° NNE 21:01:04 88° ESE 21:08:59 10° SSW visible
19 Mar 11.7 22:39:12 10° N 22:45:20 29° NW 22:51:43 10° WSW visible
20 Mar 12.3 05:29:01 10° E 05:33:06 18° NE 05:37:30 10° N visible
20 Mar 10.3 19:58:23 10° NNE 20:05:41 46° E 20:13:10 10° SSE visible
20 Mar 10.8 21:43:29 10° N 21:50:46 53° WNW 21:58:20 10° SW visible
20 Mar 12.4 23:29:56 10° N 23:34:17 17° NW 23:38:47 10° W visible
21 Mar 11.1 19:04:02 10° NE 19:09:50 22° E 19:15:42 10° SE visible
21 Mar 10.0 20:48:06 10° NNE 20:55:48 84° ESE 21:03:42 10° SSW visible
21 Mar 11.7 22:33:47 10° N 22:40:07 30° NW 22:46:39 10° WSW visible
22 Mar 12.3 05:23:45 10° E 05:27:50 18° NE 05:32:12 10° N visible
22 Mar 10.4 19:53:05 10° NNE 20:00:23 44° E 20:07:47 10° SSE visible
22 Mar 10.7 21:38:07 10° N 21:45:32 56° WNW 21:53:08 10° SW visible
22 Mar 12.3 23:24:27 10° N 23:29:05 18° NW 23:33:50 10° W visible
23 Mar 11.2 18:58:50 10° NE 19:04:28 21° E 19:10:08 10° SE visible
23 Mar 10.0 20:42:46 10° NNE 20:50:32 80° ESE 20:58:25 10° SSW visible
23 Mar 11.6 22:28:23 10° N 22:34:54 32° NW 22:41:33 10° WSW visible
24 Mar 12.7 00:16:39 10° NNW 00:17:42 10° NNW 00:18:46 10° NW visible
24 Mar 12.4 05:18:30 10° E 05:22:34 17° NE 05:26:54 10° N visible
24 Mar 10.5 19:47:48 10° NNE 19:55:04 41° E 20:02:23 10° SSE visible
24 Mar 10.6 21:32:46 10° N 21:40:17 58° WNW 21:47:56 10° SW visible
24 Mar 12.3 23:19:00 10° N 23:23:53 19° NW 23:28:53 10° W visible
